Regional Weather Roundup
Issued by NWS

Home | Current Version | Previous Version | Graphics & Text | Print | Product List | Glossary On
Versions: 1 2 3 4 5 6 7 8 9 10 11 12 13 14 15 16 17 18 19 20 21 22 23 24 25 26 27 28 29 30 31 32 33 34 35 36 37 38 39 40 41 42 43 44 45 46 47 48 49 50
007
ASUS43 KMKX 240720
RWRWI

WISCONSIN REGIONAL WEATHER ROUNDUP
NATIONAL WEATHER SERVICE MILWAUKEE/SULLIVAN WI
100 AM CST SAT FEB 24 2018

NOTE: "FAIR" INDICATES FEW OR NO CLOUDS BELOW 12,000 FEET WITH NO
SIGNIFICANT WEATHER AND/OR OBSTRUCTIONS TO VISIBILITY.

WIZ001-002-006>008-014>016-023>028-240800-
NORTHWEST WISCONSIN

CITY           SKY/WX    TMP DP  RH WIND       PRES   REMARKS
SUPERIOR ARPT  FAIR      21  13  72 W10       30.24F WCI  10
ASHLAND        FAIR      21  17  84 SW7       30.23R WCI  12
HAYWARD        FOG        8   5  87 CALM      30.23S VSB 1/4
SIREN          FAIR      14  12  92 W3        30.26S FOG
CUMBERLAND     FOG        5   1  85 CALM      30.24S VSB<1/4
RICE LAKE      FOG        0  -3  86 CALM      30.26F VSB<1/4
CHETEK         FAIR       8   5  89 CALM      30.24F FOG
LADYSMITH      MOCLDY     6   2  86 CALM      30.25F
EAU CLAIRE     FOG       10   8  92 CALM      30.24F VSB 1/4
MENOMONIE        N/A     11   9  90 CALM      30.25F FOG
NEW RICHMOND   HAZE       0  -5  80 CALM      30.26F VSB 1/4
OSCEOLA        FOG        5   2  88 CALM      30.29F VSB 1/4
$$

WIZ003>005-009-010-017-018-240800-
NORTH CENTRAL WISCONSIN

CITY           SKY/WX    TMP DP  RH WIND       PRES   REMARKS
MANITOWISH WTR FAIR      20  20 100 SW3       30.18F
ARBOR VITAE    FAIR      22  20  93 CALM      30.20S
WOODRUFF       FAIR      22  20  93 CALM      30.20S
RHINELANDER    FAIR      19  18  95 SW3       30.20F
EAGLE RIVER    MOCLDY    22  20  92 CALM      30.18F
LAND O LAKES   MOCLDY    26  22  87 CALM      30.20S
PHILLIPS       CLOUDY     6   4  92 CALM      30.21S FOG
TOMAHAWK       FAIR       7   4  89 CALM      30.22F
MEDFORD        FOG        9   7  89 CALM      30.20F VSB<1/4
MERRILL        SNOW       8   6  91 CALM      30.23F VSB<1/4
$$

WIZ029-030-035-036-043>047-240800-
CENTRAL WISCONSIN

CITY           SKY/WX    TMP DP  RH WIND       PRES   REMARKS
WAUSAU         FAIR      20  19  96 NW7       30.21F FOG     WCI  11
MOSINEE        MOCLDY    19  19 100 NW5       30.23F FOG     WCI  13
MARSHFIELD     FAIR      18  16  92 NW5       30.21F FOG     WCI  11
STEVENS POINT  FAIR      22  20  95 CALM      30.25F
WAUPACA        FAIR      28  22  79 CALM      30.27S
WAUTOMA        FAIR      26  23  88 SW3       30.29R
WISC RAPIDS    FAIR      20  17  88 S3        30.27R FOG
CAMP DOUGLAS   FAIR      20  20  98 CALM      30.28R
$$

WIZ011>013-019>022-031-037>040-048>050-240800-
NORTHEAST WISCONSIN

CITY           SKY/WX    TMP DP  RH WIND       PRES   REMARKS
ANTIGO         FAIR      20  19  96 NW5       30.21F WCI  14
SHAWANO        CLOUDY    31  23  72 CALM      30.26R
OCONTO         CLOUDY    31  22  68 NW3       30.26S
STURGEON BAY   CLOUDY    31  23  72 NW6       30.26S WCI  25
GREEN BAY      CLOUDY    32  22  66 W3        30.27R
MANITOWOC      CLOUDY    32  24  72 NW5       30.28S WCI  27
APPLETON       CLOUDY    30  21  69 NW3       30.25S
CLINTONVILLE   MOCLDY    28  22  77 CALM      30.26S
OSHKOSH        CLOUDY    30  22  72 N7        30.27S WCI  23
$$

WIZ032>034-041-042-053>061-240800-
SOUTHWEST WISCONSIN

CITY           SKY/WX    TMP DP  RH WIND       PRES   REMARKS
LA CROSSE      NOT AVBL
SPARTA         FAIR      19  19  97 CALM      30.30S FOG
VIROQUA        FAIR      24  23  99 CALM      30.26S
BOSCOBEL       CLOUDY    28  22  78 NE6       30.30S WCI  22
PRAIRIE DU CHI FAIR      24  19  83 N3        30.30S
PLATTEVILLE    FAIR      25  25  99 CALM      30.27S
$$

WIZ056-057-062-063-064-067-068-240800-
SOUTH CENTRAL WISCONSIN

CITY           SKY/WX    TMP DP  RH WIND       PRES   REMARKS
REEDSBURG      CLOUDY    26  22  83 CALM      30.28S
BARABOO/DELLS  CLOUDY    27  22  81 CALM      30.27F
LONE ROCK      CLOUDY    28  23  81 NE8       30.29F WCI  20
MINERAL POINT  CLOUDY    30  28  93 N7        30.25F WCI  23
MADISON        CLOUDY    28  24  85 N8        30.28F WCI  20
MIDDLETON      CLOUDY    31  26  84 NE9       30.28S WCI  22
WATERTOWN      CLOUDY    29  26  86 N7        30.27F WCI  22
MONROE         FAIR      28  25  86 N5        30.25S WCI  23
JANESVILLE     FAIR      32  30  93 CALM      30.26F
$$

WIZ051-052-058>065-066-070>072-240800-
SOUTHEAST WISCONSIN

CITY           SKY/WX    TMP DP  RH WIND       PRES   REMARKS
MILWAUKEE      MOCLDY    32  25  75 N7        30.27S WCI  26
WAUKESHA       FAIR      27  23  86 N5        30.28S WCI  21
MILWAUKEE/TIMM MOCLDY    30  23  74 N5        30.29R WCI  25
RACINE         FAIR      30  27  88 N7        30.28S WCI  23
BURLINGTON     FAIR      29  26  89 N5        30.27S WCI  24
KENOSHA        FAIR      32  27  81 N7        30.26S WCI  26
FOND DU LAC    CLOUDY    30  21  69 NW5       30.28R WCI  25
SHEBOYGAN      CLOUDY    31  24  75 N6        30.28R WCI  25
WEST BEND      CLOUDY    30  27  86 N5        30.28S WCI  25
JUNEAU         CLOUDY    29  23  78 N3        30.29S
$$

LSZ147-162-240800-
LAKE SUPERIOR

STATION/POSITION TIME  TEMP    WIND        PRES    WAVE
                       AIR SEA DIR/SP/G            HT/PER
                 (UTC) (F)     (DEG/KT/KT) (MB)    (FT/S)
DEVILS ISLAND    0700   27     260/ 12/ 13 1024.2R
SAXON HARBOR     0630   30     210/  3/  7 1023.0R
$$

LMZ867-665-643>646-240800-
LAKE MICHIGAN

STATION/POSITION TIME  TEMP    WIND        PRES    WAVE
                       AIR SEA DIR/SP/G            HT/PER
                 (UTC) (F)     (DEG/KT/KT) (MB)    (FT/S)
NORTHPORT PIER   0640   33                 1024.0R
KEWAUNEE LAKESHO 0654   32     300/  1/  1 1024.2R
SHEBOYGAN LAKESH 0700   32     310/  4/  5 1026.1R
PORT WASHINGTON  0630   32     350/  3/  6 1026.8R
KENOSHA   LAKESH 0700   33     360/  4/  5 1024.7
$$

TC  - TEMPERATURE IN CELSIUS
VSB - VISIBILITY IN STATUTE MILES
WCI - WIND CHILL INDEX
HX  - HEAT INDEX





USA.gov is the U.S. government's official web portal to all federal, state and local government web resources and services.